Regional Weather Roundup
Issued by NWS

Home | Current Version | Previous Version | Text Only | Print | Product List | Glossary Off
Versions: 1 2 3 4 5 6 7 8 9 10 11 12 13 14 15 16 17 18 19 20 21 22 23 24 25 26 27

000
ASUS45 KCYS 262310
RWRWY

WYOMING REGIONAL WEATHER ROUNDUP
NATIONAL WEATHER SERVICE CHEYENNE WY
500 PM MDT MON SEP 26 2016

NOTE:  "FAIR" INDICATES FEW OR NO CLOUDS BELOW 12,000 FEET
WITH NO SIGNIFICANT WEATHER AND/OR OBSTRUCTIONS TO VISIBILITY.

WYZ001-270000-
YELLOWSTONE NATIONAL PARK

CITY           SKY/WX    TMP DP  RH WIND       PRES   REMARKS
LK YELLOWSTONE   N/A     60  36  40 CALM      30.48F
W YELLOWSTONE  NOT AVBL

$$
WYZ002>013-054>058-071-098>099-270000-
NORTHERN WYOMING

CITY           SKY/WX    TMP DP  RH WIND       PRES   REMARKS
JACKSON        SUNNY     70  37  30 CALM      30.39F
CODY           FAIR      67  47  48 SE9       30.32S
GREYBULL       FAIR      69  44  40 S3        30.26F
WORLAND        FAIR      70  43  37 N6        30.28F
SHERIDAN       FAIR      71  46  40 CALM      30.26F
BUFFALO        FAIR      68  42  38 CALM      30.31F
GILLETTE       FAIR      67  45  45 NW14      30.27F
HULETT         FAIR      66  41  39 NW6       30.28S
NEWCASTLE      FAIR      68  37  32 NW14G21   30.28S

$$
WYZ014>020-022>026-101>103-270000-
CENTRAL WYOMING

CITY           SKY/WX    TMP DP  RH WIND       PRES   REMARKS
BIG PINEY      FAIR      70  35  27 W3        30.40F
PINEDALE       FAIR      68  34  28 CALM      30.41F
DUBOIS         FAIR      64  39  39 SE13      30.40F
LANDER         FAIR      70  42  36 NE3       30.33F
RIVERTON       FAIR      69  43  38 N5        30.35F
CASPER         FAIR      71  41  33 NW12      30.31F
DOUGLAS        FAIR      73  39  29 NW9       30.29F

$$
WYZ021-027>030-104>119-270000-
SOUTHERN WYOMING

CITY           SKY/WX    TMP DP  RH WIND       PRES   REMARKS
EVANSTON       FAIR      69  35  28 NW7       30.41F
FORT BRIDGER   FAIR      71  34  26 N5        30.43F
ROCK SPRINGS   FAIR      67  37  33 CALM      30.40F
DIXON          FAIR      69  33  25 W7        30.41F
RAWLINS        FAIR      67  36  31 W8        30.40F
SARATOGA       FAIR      68  32  26 NW10G22   30.41F
LARAMIE        FAIR      68  34  28 N14       30.38F
CHEYENNE       FAIR      72  34  24 N16       30.32F
TORRINGTON     FAIR      74  37  26 NW12G18   30.24F
PINE BLUFFS    FAIR      72  34  25 N8G16     30.29F

$$




USA.gov is the U.S. government's official web portal to all federal, state and local government web resources and services.